Date,TemperatureHighF,TemperatureAvgF,TemperatureLowF,DewpointHighF,DewpointAvgF,DewpointLowF,HumidityHigh,HumidityAvg,HumidityLow,PressureMaxIn,PressureMinIn,WindSpeedMaxMPH,WindSpeedAvgMPH,GustSpeedMaxMPH,PrecipitationSumIn
2013-1-1,47.3,38.1,30.8,24.0,19.9,15.0,72,50,30,30.26,30.11,10,2,14,0.00
2013-1-2,48.0,37.6,28.4,20.0,14.8,11.0,66,42,23,30.31,30.14,9,3,11,0.00
2013-1-3,35.1,31.4,29.4,30.0,25.2,14.0,93,80,42,30.45,30.23,6,2,10,0.00
2013-1-4,35.7,31.0,26.7,30.0,27.3,25.0,92,86,74,30.50,30.38,2,0,6,0.06
2013-1-5,42.2,30.6,22.4,32.0,26.6,21.0,93,85,64,30.53,30.41,4,1,7,0.05
2013-1-6,48.4,35.0,22.6,32.0,26.9,21.0,94,75,46,30.55,30.21,4,1,6,0.03
2013-1-7,55.1,43.5,35.1,33.0,30.2,28.0,78,61,42,30.20,29.85,9,2,10,0.00
2013-1-8,58.9,48.3,40.6,33.0,27.7,18.0,70,47,25,30.04,29.84,7,2,12,0.00
2013-1-9,58.0,47.1,38.0,29.0,23.6,18.0,67,41,27,30.24,30.06,9,2,12,0.00
2013-1-10,61.1,45.6,30.5,37.0,28.6,25.0,81,55,29,30.09,29.87,14,2,15,0.00
2013-1-11,55.9,46.6,35.6,37.0,22.7,10.0,79,41,27,29.85,29.73,20,6,44,0.00
2013-1-12,43.1,36.0,29.2,14.0,8.4,2.0,49,33,19,30.12,29.83,18,6,33,0.00
2013-1-13,43.2,32.1,19.3,13.0,7.4,2.0,67,38,20,30.23,30.05,7,2,13,0.00
2013-1-14,44.8,33.9,23.5,22.0,12.3,0.0,79,45,20,30.16,30.02,14,3,16,0.00
2013-1-15,38.8,31.0,25.0,14.0,3.3,-8.0,61,34,14,30.45,30.13,12,3,16,0.00
2013-1-16,47.7,34.0,21.6,11.0,3.9,-2.0,44,29,17,30.56,30.42,7,1,11,0.00
2013-1-17,58.5,41.8,27.4,23.0,15.3,7.0,54,36,22,30.60,30.40,7,2,11,0.00
2013-1-18,60.8,45.0,34.1,25.0,21.7,19.0,65,43,20,30.41,30.20,5,1,8,0.00
2013-1-19,63.5,45.7,31.8,22.0,19.5,16.0,62,38,17,30.35,30.19,6,2,7,0.00
2013-1-20,66.5,47.7,32.6,19.0,14.9,11.0,52,29,12,30.27,30.08,5,1,8,0.00
2013-1-21,65.5,51.1,42.5,14.0,11.5,9.0,31,22,11,30.23,30.07,10,2,13,0.00
2013-1-22,69.2,51.4,38.1,17.0,13.0,11.0,35,23,11,30.25,30.12,6,1,9,0.00
2013-1-23,72.6,50.5,32.9,23.0,17.3,11.0,50,30,11,30.35,30.19,4,1,10,0.00
2013-1-24,72.6,56.6,38.9,35.0,23.8,16.0,53,30,17,30.26,30.09,12,2,21,0.00
2013-1-25,65.8,57.5,49.7,41.0,38.3,33.0,62,50,33,30.14,29.99,6,1,13,0.00
2013-1-26,68.2,57.8,49.0,49.0,44.1,40.0,77,61,45,30.02,29.85,16,3,28,0.05
2013-1-27,66.3,58.1,47.8,46.0,42.3,40.0,74,57,40,29.93,29.82,13,4,21,0.00
2013-1-28,65.6,54.8,41.5,41.0,36.0,31.0,87,53,30,29.89,29.71,24,8,41,0.00
2013-1-29,49.2,41.2,38.6,34.0,21.3,10.0,70,47,26,30.05,29.73,24,13,39,0.00
2013-1-30,50.5,42.2,34.5,22.0,13.0,4.0,55,33,15,30.30,30.05,16,6,29,0.00
2013-1-31,59.1,42.8,28.3,21.0,15.8,9.0,54,35,20,30.34,30.20,4,1,7,0.00
2013-2-1,65.2,46.8,30.7,21.0,17.9,15.0,61,36,15,30.29,30.13,7,2,9,0.00
2013-2-2,67.9,51.1,35.5,20.0,15.8,12.0,48,27,12,30.35,30.20,8,2,10,0.00
2013-2-3,63.2,51.2,40.4,33.0,18.6,15.0,39,29,17,30.24,29.90,8,2,13,0.00
2013-2-4,65.7,57.2,47.9,34.0,31.3,28.0,53,38,29,29.97,29.83,10,3,16,0.00
2013-2-5,67.8,53.4,38.1,32.0,28.2,24.0,65,41,20,30.01,29.86,6,1,10,0.00
2013-2-6,67.5,54.9,37.5,33.0,27.9,20.0,65,39,17,29.93,29.80,12,3,20,0.00
2013-2-7,66.6,56.3,46.6,32.0,27.7,22.0,53,35,22,30.02,29.90,9,2,11,0.00
2013-2-8,70.9,56.4,42.2,30.0,24.3,10.0,52,31,12,30.04,29.73,12,3,16,0.00
2013-2-9,61.9,51.0,42.2,25.0,17.2,7.0,46,28,12,29.89,29.60,24,10,41,0.00
2013-2-10,54.9,44.5,36.1,19.0,13.5,6.0,44,30,14,29.99,29.86,32,7,39,0.00
2013-2-11,60.8,45.7,28.5,28.0,13.0,8.0,54,29,14,30.02,29.84,15,4,23,0.00
2013-2-12,52.1,42.4,35.2,33.0,17.7,3.0,73,43,14,30.15,29.94,22,6,28,0.01
2013-2-13,56.2,43.0,26.2,14.0,10.1,7.0,50,28,15,30.23,30.05,9,2,16,0.00
2013-2-14,61.7,45.6,28.2,17.0,12.1,7.0,43,27,16,30.17,29.98,14,2,17,0.00
2013-2-15,58.3,46.9,37.6,29.0,23.2,13.0,62,41,28,30.33,30.15,5,2,10,0.00
2013-2-16,63.9,45.7,28.9,23.0,16.0,9.0,64,35,12,30.45,30.16,5,1,10,0.00
2013-2-17,68.3,51.3,28.9,12.0,8.3,-2.0,47,22,6,30.15,29.77,19,5,30,0.00
2013-2-18,64.1,56.9,48.8,13.0,6.5,-1.0,20,14,8,29.97,29.82,29,6,31,0.00
2013-2-19,59.9,50.3,41.3,47.0,24.9,4.0,91,48,14,29.95,29.77,11,3,17,0.36
2013-2-20,60.7,49.2,37.1,44.0,32.0,19.0,92,59,21,29.76,29.48,30,8,44,0.00
2013-2-21,52.8,42.6,34.0,26.0,22.7,20.0,68,47,30,29.94,29.73,24,8,44,0.00
2013-2-22,56.0,45.7,31.1,26.0,22.4,19.0,75,43,25,30.05,29.92,26,7,37,0.00
2013-2-23,60.7,49.1,34.7,23.0,17.4,11.0,43,29,19,30.07,29.71,11,4,26,0.00
2013-2-24,61.9,49.6,35.4,24.0,16.7,5.0,49,29,14,29.85,29.49,28,11,42,0.00
2013-2-25,53.9,43.8,33.2,18.0,11.5,6.0,51,29,17,30.09,29.85,17,6,25,0.00
2013-2-26,65.7,52.1,35.8,14.0,5.7,-9.0,36,18,5,30.00,29.74,28,7,28,0.00
2013-2-27,56.0,44.8,34.1,13.0,3.1,-3.0,32,19,10,30.25,30.00,10,2,13,0.00
2013-2-28,58.4,45.0,30.4,17.0,10.9,5.0,54,28,13,30.34,30.22,8,2,10,0.00
2013-3-1,66.2,53.5,37.7,15.0,7.4,2.0,30,16,10,30.34,30.19,12,3,15,0.00
2013-3-2,71.4,55.3,37.7,19.0,15.0,11.0,38,22,11,30.36,30.10,6,2,9,0.00
2013-3-3,80.3,61.8,37.3,21.0,8.7,-29.0,50,19,1,30.10,29.76,19,6,33,0.00
2013-3-4,77.7,68.4,61.0,29.0,15.4,-2.0,22,13,5,29.86,29.54,21,8,35,0.00
2013-3-5,65.7,54.6,43.5,28.0,24.3,18.0,50,32,19,30.20,29.86,11,4,21,0.00
2013-3-6,76.6,62.3,50.1,26.0,24.6,23.0,36,25,15,30.13,29.84,9,3,12,0.00
2013-3-7,78.1,66.3,53.5,27.0,22.1,12.0,34,20,8,29.89,29.72,16,5,24,0.00
2013-3-8,70.0,63.5,58.7,50.0,35.7,22.0,68,37,18,29.80,29.62,17,7,23,0.00
2013-3-9,59.1,49.8,43.7,36.0,27.5,21.0,65,44,25,29.92,29.64,23,11,37,0.00
2013-3-10,56.4,47.3,34.0,30.0,24.8,21.0,74,44,27,30.14,29.91,11,3,24,0.00
2013-3-11,67.7,51.5,33.7,24.0,19.6,15.0,59,32,14,30.19,29.97,11,2,22,0.00
2013-3-12,74.6,58.1,38.3,24.0,17.3,13.0,39,22,10,30.14,29.98,12,3,14,0.00
2013-3-13,77.5,60.0,42.9,25.0,19.6,7.0,45,24,7,30.24,30.04,7,2,13,0.00
2013-3-14,82.2,63.1,42.8,20.0,13.0,4.0,34,17,5,30.20,30.00,5,1,9,0.00
2013-3-15,84.8,65.3,46.4,19.0,11.1,-1.0,33,16,4,30.04,29.77,9,2,13,0.00
2013-3-16,83.2,74.1,59.1,17.0,8.5,-7.0,17,8,3,29.76,29.52,17,8,29,0.00
2013-3-17,78.1,71.1,59.2,23.0,13.8,5.0,19,11,7,29.66,29.52,21,9,46,0.00
2013-3-18,76.8,68.7,55.9,20.0,12.2,6.0,19,12,7,29.84,29.66,24,7,39,0.00
2013-3-19,76.8,66.8,49.7,21.0,15.9,10.0,26,15,9,29.93,29.73,17,5,22,0.00
2013-3-20,72.3,61.2,49.2,35.0,29.0,20.0,48,31,20,30.09,29.75,9,2,15,0.00
2013-3-21,80.6,70.0,57.2,31.0,23.2,15.0,35,18,9,29.74,29.48,19,9,30,0.00
2013-3-22,77.7,70.2,62.9,27.0,23.2,15.0,24,17,13,29.59,29.41,17,8,29,0.00
2013-3-23,72.4,64.4,50.3,27.0,13.0,-19.0,28,16,4,29.84,29.55,26,12,33,0.00
2013-3-24,65.2,50.1,34.5,5.0,-2.6,-18.0,25,12,6,30.06,29.80,8,3,13,0.00
2013-3-25,62.9,50.5,38.5,11.0,5.9,-3.0,26,17,11,30.15,29.89,9,3,12,0.00
2013-3-26,72.9,55.1,38.4,17.0,13.9,11.0,34,21,11,30.21,29.92,7,3,14,0.00
2013-3-27,78.2,64.1,51.2,24.0,20.3,16.0,28,19,10,29.97,29.80,9,3,16,0.00
2013-3-28,81.5,67.6,51.2,28.0,23.1,14.0,30,19,12,29.96,29.80,12,2,15,0.00
2013-3-29,82.0,73.4,59.6,23.0,17.2,8.0,22,12,8,29.92,29.77,10,4,17,0.00
2013-3-30,83.9,71.9,52.8,26.0,16.3,9.0,23,12,7,29.91,29.72,12,3,18,0.00
2013-3-31,82.0,71.0,53.3,28.0,23.1,17.0,33,17,11,29.85,29.71,8,2,21,0.00
2013-4-1,83.6,71.1,52.8,33.0,20.4,0.0,42,18,4,29.83,29.63,12,4,22,0.00
2013-4-2,81.0,72.1,62.3,27.0,16.7,4.0,22,13,6,29.71,29.52,15,6,24,0.00
2013-4-3,73.6,59.6,44.5,37.0,29.5,4.0,67,37,9,29.95,29.67,10,2,22,0.00
2013-4-4,81.4,64.2,46.5,32.0,24.6,10.0,52,27,7,30.08,29.88,4,1,11,0.00
2013-4-5,86.3,74.2,58.6,28.0,14.8,1.0,23,12,4,29.92,29.62,13,5,21,0.00
2013-4-6,82.3,73.5,63.0,29.0,23.2,15.0,24,16,8,29.76,29.59,12,4,22,0.00
2013-4-7,83.2,74.7,65.0,27.0,22.2,16.0,19,14,9,29.69,29.48,15,6,23,0.00
2013-4-8,85.0,74.3,65.4,30.0,21.1,8.0,26,14,6,29.53,29.23,20,8,36,0.00
2013-4-9,72.2,59.6,51.1,35.0,25.2,16.0,52,29,14,29.74,29.23,21,8,36,0.00
2013-4-10,65.4,56.7,47.6,28.0,23.2,15.0,47,29,15,29.85,29.72,15,6,24,0.00
2013-4-11,75.1,60.3,44.1,22.0,16.6,5.0,38,21,8,29.86,29.65,13,4,17,0.00
2013-4-12,80.7,66.2,49.0,28.0,16.7,11.0,26,16,8,29.76,29.57,10,2,14,0.00
2013-4-13,83.2,73.0,58.5,23.0,17.6,9.0,22,13,7,29.65,29.47,12,4,23,0.00
2013-4-14,82.2,73.3,62.4,27.0,21.4,17.0,22,14,10,29.59,29.43,23,8,32,0.00
2013-4-15,84.5,73.6,62.4,31.0,20.3,9.0,29,15,6,29.63,29.48,20,8,30,0.00
2013-4-16,86.1,76.1,66.8,25.0,15.5,1.0,19,11,4,29.65,29.48,18,9,32,0.00
2013-4-17,80.4,70.0,54.3,27.0,18.1,2.0,25,14,5,29.73,29.41,30,11,38,0.00
2013-4-18,66.3,55.8,46.1,21.0,11.0,-13.0,35,20,4,30.08,29.73,14,4,24,0.00
2013-4-19,70.7,55.2,41.3,3.0,-4.1,-23.0,19,10,2,30.23,29.94,7,2,12,0.00
2013-4-20,80.5,63.4,38.9,10.0,-0.2,-18.0,30,11,2,29.94,29.70,16,5,28,0.00
2013-4-21,84.0,75.6,52.3,20.0,8.5,3.3,21,8,5,30.00,29.77,17,3,17,0.00
2013-4-22,88.8,76.1,57.9,16.6,6.0,-5.0,18,8,3,30.04,29.77,23,4,23,0.00
2013-4-23,86.9,76.5,57.7,26.0,9.5,-4.0,29,9,3,30.02,29.73,27,5,27,0.00
2013-4-24,78.3,60.5,42.9,29.8,26.5,21.3,49,30,13,30.26,30.02,14,3,14,0.00
2013-4-25,86.2,70.6,57.5,40.7,28.0,2.1,36,24,5,30.20,29.89,27,5,27,0.00
2013-4-26,84.3,72.6,61.1,21.6,10.7,-6.5,21,10,3,30.15,29.98,27,5,27,0.00
2013-4-27,87.5,70.9,55.6,28.9,17.0,2.8,32,15,5,30.21,30.00,11,2,0,0.00
2013-4-28,89.0,73.4,54.6,39.1,24.1,11.4,37,18,6,30.07,29.86,20,2,20,0.00
2013-4-29,91.3,76.3,59.2,42.4,14.2,-99.9,37,15,1,29.93,29.72,16,4,16,0.00
2013-4-30,92.3,82.2,62.1,16.6,6.1,-8.5,13,6,2,29.79,29.68,23,6,23,0.00
2013-5-1,89.2,80.7,72.3,19.8,9.9,-2.0,11,7,4,29.94,29.74,33,7,33,0.00
2013-5-2,77.1,56.6,46.0,35.0,24.6,4.2,55,31,6,30.55,29.94,22,6,22,0.00
2013-5-3,72.0,55.7,41.1,22.4,15.9,7.0,45,24,9,30.61,30.16,16,3,16,0.00
2013-5-4,85.3,66.9,46.1,20.7,14.3,8.0,28,14,8,30.16,29.90,14,2,14,0.00
2013-5-5,85.5,72.4,58.0,28.6,21.4,13.2,22,15,11,30.14,29.89,26,3,26,0.00
2013-5-6,83.0,73.3,65.5,38.3,28.8,21.4,33,20,11,30.03,29.90,28,5,28,0.00
2013-5-7,83.3,74.5,67.3,32.4,26.6,18.9,24,17,10,30.05,29.86,26,9,26,0.00
2013-5-8,81.3,73.5,65.6,31.0,23.2,15.3,26,16,9,30.04,29.90,24,6,24,0.00
2013-5-9,82.2,72.8,62.6,30.1,23.7,16.3,23,16,11,30.03,29.90,19,4,19,0.00
2013-5-10,80.2,66.2,56.7,49.8,36.6,22.2,73,37,15,30.23,29.97,27,3,27,0.03
2013-5-11,76.8,64.7,52.6,45.3,40.8,27.5,67,45,17,30.36,30.23,17,3,17,0.00
2013-5-12,80.8,68.3,54.6,39.2,34.7,28.3,54,32,16,30.37,30.17,20,3,20,0.00
2013-5-13,85.0,71.8,58.6,37.3,29.4,19.1,42,23,10,30.31,30.11,15,3,15,0.00
2013-5-14,87.0,73.1,61.2,43.2,36.6,16.6,43,28,8,30.16,29.94,16,4,16,0.00
2013-5-15,92.3,79.9,65.9,41.2,31.5,23.8,38,19,10,30.02,29.81,30,7,35,0.00
2013-5-16,92.8,83.3,72.7,29.8,23.6,13.1,19,12,6,29.93,29.75,32,6,32,0.00
2013-5-17,95.5,84.4,70.9,30.4,20.2,8.2,17,10,6,29.89,29.77,23,5,23,0.00
2013-5-18,88.6,81.7,74.3,28.5,17.9,-9.9,15,10,2,29.92,29.75,30,9,30,0.00
2013-5-19,89.0,79.3,66.0,30.2,19.6,7.5,18,11,5,29.92,29.72,28,6,28,0.00
2013-5-20,90.3,80.4,65.0,30.1,22.7,9.4,24,13,5,29.91,29.70,29,7,29,0.00
2013-5-21,88.0,75.4,61.8,32.3,21.1,7.3,29,15,5,29.98,29.83,18,3,18,0.00
2013-5-22,95.9,79.1,55.2,26.7,14.4,-0.8,25,11,3,29.93,29.77,18,3,18,0.00
2013-5-23,97.8,83.1,69.3,50.4,26.6,12.5,46,15,6,29.92,29.72,24,4,24,0.00
2013-5-24,95.2,80.5,65.7,50.8,43.6,24.1,58,32,10,30.01,29.83,20,4,20,0.00
2013-5-25,96.5,84.1,68.4,55.5,36.8,8.8,58,27,4,29.98,29.81,20,4,20,0.00
2013-5-26,95.2,83.9,67.7,50.2,27.5,-9.9,53,19,3,29.97,29.81,24,5,24,0.00
2013-5-27,93.8,83.6,70.7,23.8,7.4,-6.8,16,6,3,29.89,29.71,23,4,23,0.00
2013-5-28,93.6,83.8,69.1,24.3,6.9,-10.6,18,6,2,29.75,29.57,24,6,24,0.00
2013-5-29,88.5,80.9,71.9,32.4,23.6,-0.8,19,13,4,29.74,29.61,30,9,30,0.00
2013-5-30,93.0,83.2,73.1,40.3,32.6,26.8,21,16,10,29.86,29.71,27,6,29,0.00
2013-5-31,96.4,87.0,77.4,37.9,31.6,25.1,21,14,9,29.88,29.69,31,5,31,0.00
2013-6-1,98.7,86.9,74.7,41.9,22.8,1.4,25,10,5,29.90,29.72,25,4,25,0.00
2013-6-2,97.2,80.8,70.0,58.6,49.0,41.6,55,34,20,29.99,29.71,28,5,28,0.00
2013-6-3,99.0,83.0,66.3,56.5,40.1,5.5,70,32,4,29.95,29.75,23,4,23,0.00
2013-6-4,99.2,87.1,65.8,44.6,29.7,13.5,43,16,6,29.89,29.73,23,4,23,0.00
2013-6-5,98.5,90.4,81.3,36.6,23.4,8.2,19,10,5,29.85,29.70,20,5,20,0.00
2013-6-6,95.5,82.8,71.9,48.1,40.6,3.6,42,25,4,29.90,29.75,26,4,26,0.00
2013-6-7,96.0,80.0,69.3,59.0,51.1,37.1,66,39,16,29.95,29.73,23,3,28,0.00
2013-6-8,101.7,85.4,67.9,52.7,40.1,19.1,58,27,7,29.88,29.66,33,5,33,0.00
2013-6-9,100.8,89.5,77.5,51.2,42.2,18.3,37,21,7,29.85,29.65,33,6,34,0.00
2013-6-10,104.7,90.3,77.0,51.1,46.0,35.1,38,24,10,29.92,29.74,20,4,20,0.00
2013-6-11,106.0,91.1,76.4,47.5,39.6,28.8,32,18,7,29.90,29.71,12,3,12,0.00
2013-6-12,108.2,90.7,74.0,52.4,40.6,28.0,32,19,7,29.89,29.72,18,3,18,0.00
2013-6-13,98.0,84.7,75.2,59.0,55.1,43.1,54,38,16,29.92,29.76,18,3,19,0.00
2013-6-14,96.7,82.2,70.9,65.4,56.5,51.0,62,44,23,29.92,29.75,17,3,30,0.67
2013-6-15,99.5,87.6,68.1,66.0,53.0,41.1,91,36,15,29.97,29.82,12,2,14,0.03
2013-6-16,101.8,89.2,75.5,57.0,48.0,44.0,45,26,15,29.96,29.79,19,4,19,0.01
2013-6-17,100.3,90.0,78.7,64.3,50.5,44.6,48,27,16,29.90,29.75,21,4,21,0.02
2013-6-18,98.6,82.5,71.5,60.0,54.8,43.0,59,42,15,29.97,29.77,13,3,14,0.00
2013-6-19,102.3,93.2,78.1,60.3,45.5,28.5,49,24,9,29.83,29.65,20,5,21,0.00
2013-6-20,101.3,91.0,78.1,52.0,44.8,35.0,38,22,11,29.86,29.70,19,6,24,0.00
2013-6-21,100.3,89.2,72.7,55.0,48.9,39.0,52,27,13,29.91,29.74,16,4,26,0.00
2013-6-22,100.4,90.5,74.4,55.9,42.0,15.0,48,22,6,29.90,29.70,19,4,20,0.00
2013-6-23,100.2,92.0,76.4,52.0,33.1,14.0,42,14,6,29.83,29.67,21,4,21,0.00
2013-6-24,100.0,92.4,79.3,46.0,36.8,28.0,22,14,11,29.87,29.70,16,5,19,0.00
2013-6-25,99.7,90.3,80.2,47.0,28.0,10.0,23,11,5,29.91,29.77,18,4,19,0.00
2013-6-26,103.6,93.3,80.7,22.0,4.6,-99.9,10,4,1,29.94,29.80,17,5,21,0.00
2013-6-27,109.1,95.4,81.1,41.0,12.1,-9.0,19,5,2,29.93,29.78,14,3,25,0.00
2013-6-28,100.5,89.3,78.6,46.7,40.1,32.5,28,19,11,30.04,29.87,13,3,14,0.00
2013-6-29,103.7,92.3,74.1,48.0,41.3,31.8,37,19,9,29.99,29.80,18,3,20,0.00
2013-6-30,99.8,87.2,76.9,59.0,49.6,44.0,54,29,16,29.95,29.76,20,4,26,0.04
2013-7-1,84.3,75.8,65.2,62.1,57.8,53.7,87,56,36,30.20,29.93,18,5,32,0.15
2013-7-2,89.8,76.6,64.8,63.0,54.4,45.9,88,52,23,30.22,30.00,12,3,21,0.00
2013-7-3,94.0,79.1,67.5,60.0,54.1,44.8,74,46,20,30.10,29.84,9,2,19,0.00
2013-7-4,97.8,83.7,68.8,55.6,51.9,44.9,62,36,17,29.92,29.75,10,2,9,0.00
2013-7-5,101.0,88.7,73.6,52.2,48.5,42.0,43,26,14,29.88,29.67,11,3,14,0.00
2013-7-6,100.6,90.2,78.1,57.0,53.3,49.0,44,29,18,29.81,29.64,18,3,28,0.00
2013-7-7,103.7,92.4,79.4,57.0,51.8,46.0,45,26,17,29.86,29.70,18,4,21,0.00
2013-7-8,97.3,87.6,77.3,57.3,51.7,46.0,49,31,18,29.96,29.84,15,3,17,0.00
2013-7-9,100.1,87.1,76.4,59.3,55.5,48.0,51,36,17,30.03,29.83,14,3,16,0.00
2013-7-10,98.9,87.8,76.7,60.4,57.1,52.3,57,37,23,30.01,29.81,13,4,16,0.00
2013-7-11,98.6,87.9,77.0,59.9,56.8,52.0,47,35,22,29.95,29.80,17,3,17,0.00
2013-7-12,101.1,87.7,76.9,60.3,54.2,48.7,54,34,18,29.95,29.77,22,3,22,0.00
2013-7-13,100.3,91.7,73.1,58.0,52.4,44.0,54,28,19,29.95,29.78,14,3,16,0.00
2013-7-14,101.9,92.7,75.1,60.0,50.7,46.0,45,25,17,29.91,29.70,22,3,22,0.00
2013-7-15,85.5,76.3,70.8,60.4,57.2,50.8,61,52,42,30.09,29.82,18,4,18,0.00
2013-7-16,86.3,76.7,68.2,55.3,51.6,45.6,62,44,26,30.14,30.03,15,4,15,0.00
2013-7-17,78.3,73.2,66.2,61.6,56.6,53.0,81,57,46,30.22,30.13,20,5,20,0.00
2013-7-18,76.2,67.9,65.1,67.0,64.1,60.8,93,88,69,30.21,30.09,7,1,9,0.86
2013-7-19,83.8,75.6,67.1,66.0,63.4,59.0,93,68,44,30.15,29.95,15,3,15,0.01
2013-7-20,91.0,80.3,67.2,66.0,62.4,56.5,89,57,35,30.03,29.84,14,3,17,0.00
2013-7-21,95.2,84.1,71.2,62.8,59.0,52.5,70,45,24,29.95,29.78,15,3,15,0.00
2013-7-22,95.0,84.9,73.1,63.0,60.1,53.1,67,45,26,29.93,29.79,16,4,19,0.00
2013-7-23,95.8,82.7,73.8,65.3,61.5,57.4,69,50,29,29.94,29.79,23,3,26,0.04
2013-7-24,96.2,83.6,67.1,67.0,62.3,56.6,96,53,28,30.05,29.85,19,3,19,0.68
2013-7-25,91.0,77.1,66.0,69.0,65.1,62.8,96,71,41,30.12,30.00,12,2,13,0.36
2013-7-26,93.8,82.9,74.6,69.1,65.1,58.0,79,57,34,30.08,29.98,12,3,19,0.02
2013-7-27,85.5,75.8,66.6,68.0,64.8,62.4,92,70,50,30.15,29.97,10,2,9,0.13
2013-7-28,92.1,78.6,68.9,67.8,64.1,58.0,87,63,36,30.02,29.83,24,2,24,0.03
2013-7-29,96.7,85.5,72.7,66.2,59.4,49.8,78,46,21,29.99,29.91,13,3,15,0.00
2013-7-30,99.6,82.6,73.0,66.3,59.0,52.5,66,46,22,30.07,29.96,11,2,18,0.06
2013-7-31,99.9,87.0,72.1,64.0,58.4,48.0,74,41,20,30.10,29.95,10,2,14,0.00
2013-8-1,96.4,88.2,76.9,63.0,55.0,49.0,59,34,20,30.05,29.88,9,3,16,0.00
2013-8-2,95.5,86.8,76.6,65.9,59.4,55.0,63,41,28,29.95,29.82,23,3,23,0.23
2013-8-3,99.6,88.0,74.8,63.0,57.7,52.0,67,37,21,29.97,29.85,9,2,13,0.00
2013-8-4,100.0,91.0,77.3,60.0,55.6,50.0,54,31,21,29.96,29.81,12,2,10,0.00
2013-8-5,99.2,87.6,75.9,60.0,54.6,49.0,47,34,20,29.95,29.81,15,4,22,0.00
2013-8-6,93.3,85.5,75.7,60.2,55.1,49.5,56,37,24,29.95,29.84,23,4,23,0.00
2013-8-7,91.2,84.5,75.6,59.0,55.1,50.0,55,38,26,29.99,29.85,18,6,18,0.00
2013-8-8,94.8,86.3,71.5,56.8,50.4,39.0,56,31,17,29.97,29.83,16,3,16,0.00
2013-8-9,98.2,87.0,74.4,55.0,47.1,38.0,40,26,15,29.98,29.87,11,2,13,0.00
2013-8-10,86.3,78.9,73.5,63.0,58.2,52.0,68,50,37,30.16,29.98,14,3,15,0.01
2013-8-11,93.6,80.6,66.2,64.0,60.2,52.0,83,54,25,30.18,29.98,11,4,14,0.00
2013-8-12,95.3,84.5,72.7,62.0,58.9,55.3,67,44,28,30.06,29.88,16,2,16,0.00
2013-8-13,93.9,82.8,75.5,62.6,59.4,54.0,58,46,28,30.02,29.89,14,2,14,0.00
2013-8-14,96.4,83.5,71.6,64.0,57.8,52.3,78,43,26,30.06,29.88,22,3,22,0.07
2013-8-15,95.4,82.5,70.9,65.0,58.5,53.0,76,46,26,30.07,29.94,22,2,22,0.01
2013-8-16,98.8,85.4,70.7,61.0,54.1,42.1,69,37,17,30.07,29.93,13,2,13,0.00
2013-8-17,99.7,87.7,71.1,55.4,51.0,44.0,50,30,16,30.05,29.87,12,2,17,0.00
2013-8-18,100.4,88.6,72.7,56.0,50.5,44.6,48,28,17,30.02,29.88,11,2,13,0.00
2013-8-19,98.8,84.4,73.7,57.3,53.6,46.1,55,37,20,30.01,29.87,28,3,28,0.00
2013-8-20,96.7,85.3,73.7,57.4,50.7,44.1,56,33,18,29.99,29.86,10,2,10,0.00
2013-8-21,96.8,81.4,70.6,57.1,51.1,34.0,57,38,16,30.02,29.88,15,2,18,0.00
2013-8-22,93.9,84.7,70.7,54.3,48.4,35.0,49,30,13,30.05,29.89,21,3,21,0.00
2013-8-23,92.9,79.1,70.0,57.1,54.8,48.0,60,44,22,30.02,29.88,17,3,23,0.00
2013-8-24,89.7,80.8,70.1,60.0,56.8,54.0,62,45,30,30.06,29.93,12,3,17,0.00
2013-8-25,94.2,84.4,70.2,59.0,55.1,51.0,65,38,24,30.11,29.96,16,4,17,0.00
2013-8-26,93.3,83.1,72.3,57.7,54.3,50.0,55,38,25,30.10,29.95,22,4,22,0.00
2013-8-27,86.6,77.3,70.1,72.0,58.3,54.0,91,53,37,30.06,29.93,15,2,18,0.00
2013-8-28,81.8,77.0,71.4,65.4,63.2,61.0,75,63,53,30.10,29.99,8,1,7,0.00
2013-8-29,82.7,73.7,65.1,70.2,66.1,63.0,97,79,56,30.22,30.09,9,2,17,0.55
2013-8-30,91.3,78.5,66.9,67.2,63.8,57.0,89,63,33,30.17,29.97,8,1,11,0.00
2013-8-31,97.1,85.1,69.3,66.0,59.3,49.0,85,46,24,29.99,29.82,7,2,12,0.00
2013-9-1,99.8,86.9,72.1,60.7,53.5,42.0,63,34,15,29.91,29.79,10,2,20,0.00
2013-9-2,95.5,82.6,72.3,61.0,54.6,48.8,54,40,23,30.02,29.86,24,3,24,0.00
2013-9-3,93.9,83.7,72.9,61.1,54.1,44.1,63,39,20,30.06,29.91,18,3,18,0.00
2013-9-4,95.2,82.2,68.9,55.6,51.0,45.0,57,36,20,30.11,29.97,19,3,19,0.00
2013-9-5,94.3,83.8,70.7,55.0,47.9,38.0,54,31,16,30.11,29.99,12,2,15,0.00
2013-9-6,94.5,86.3,71.2,56.0,52.5,48.7,50,33,23,30.10,29.91,17,4,17,0.00
2013-9-7,92.7,84.0,73.0,57.0,52.6,45.9,54,35,24,30.03,29.86,12,3,21,0.00
2013-9-8,93.5,85.0,73.0,56.7,51.3,45.8,54,33,22,29.95,29.77,18,4,18,0.00
2013-9-9,90.8,79.4,71.6,63.2,57.9,54.0,61,49,31,29.89,29.76,21,4,21,0.00
2013-9-10,79.7,70.7,66.6,67.0,65.2,61.0,97,84,57,30.06,29.89,14,3,16,0.87
2013-9-11,79.8,71.9,66.7,72.1,68.2,65.7,98,89,66,30.09,30.00,12,2,11,0.78
2013-9-12,68.8,65.7,62.7,67.0,65.1,62.1,99,98,91,30.10,30.02,12,1,12,3.34
2013-9-13,71.5,67.5,65.0,69.4,65.6,62.8,99,94,85,30.09,29.96,12,2,12,0.44
2013-9-14,84.8,71.1,65.2,64.3,61.4,54.0,91,74,37,30.03,29.88,7,2,11,0.00
2013-9-15,87.4,77.8,63.3,63.3,58.8,52.9,83,54,33,30.03,29.92,20,2,20,0.00
2013-9-16,85.3,73.3,64.5,65.7,61.8,58.4,86,69,44,30.14,30.00,15,3,15,0.00
2013-9-17,86.3,76.0,65.8,64.7,62.0,59.0,87,64,42,30.11,29.91,12,2,13,0.00
2013-9-18,88.3,80.2,67.8,63.7,60.7,57.6,79,53,39,29.99,29.80,14,3,14,0.00
2013-9-19,87.2,74.6,66.0,67.0,63.0,61.0,86,68,43,29.93,29.80,11,2,18,0.01
2013-9-20,83.1,74.1,65.1,66.0,60.1,53.0,90,64,38,30.07,29.89,12,3,15,0.00
2013-9-21,81.1,71.9,63.3,60.0,56.1,52.6,82,60,39,30.12,29.94,8,2,12,0.00
2013-9-22,87.0,77.6,59.7,56.8,53.1,48.9,83,45,28,29.96,29.71,17,4,17,0.00
2013-9-23,84.5,76.0,65.4,57.0,42.5,34.6,48,32,18,29.99,29.76,18,3,22,0.00
2013-9-24,86.8,69.0,56.5,48.0,40.7,37.5,57,37,19,30.16,29.99,9,2,9,0.00
2013-9-25,91.2,77.3,57.6,53.0,46.6,39.5,67,37,21,30.01,29.75,15,3,15,0.00
2013-9-26,89.2,79.6,71.5,51.0,44.1,39.3,42,29,21,29.85,29.72,17,4,17,0.00
2013-9-27,85.8,79.3,71.3,57.5,52.1,40.0,51,40,22,29.89,29.71,22,5,26,0.00
2013-9-28,76.4,66.8,57.4,43.0,29.2,22.5,41,26,15,30.23,29.91,14,3,14,0.00
2013-9-29,81.8,70.3,50.0,43.8,36.3,28.0,60,31,18,30.29,30.09,13,1,13,0.00
2013-9-30,87.0,72.6,54.9,43.9,35.0,20.6,54,29,11,30.11,29.91,25,3,25,0.00
2013-10-1,87.7,79.2,73.3,33.0,24.3,15.0,18,13,7,29.98,29.87,31,6,31,0.00
2013-10-2,87.5,73.1,62.9,41.0,33.5,24.1,32,24,15,30.00,29.88,12,2,14,0.00
2013-10-3,85.1,74.7,59.0,43.1,36.5,27.0,51,26,12,29.96,29.82,16,3,17,0.00
2013-10-4,85.2,76.8,67.5,45.1,39.9,29.4,38,28,14,29.96,29.84,21,4,22,0.00
2013-10-5,74.8,65.0,54.5,36.0,22.4,15.0,31,20,16,30.29,29.96,12,3,14,0.00
2013-10-6,76.1,63.8,47.9,31.9,25.4,20.0,40,24,14,30.39,30.26,8,1,10,0.00
2013-10-7,81.0,59.3,46.6,34.1,30.1,23.0,59,36,13,30.38,30.16,7,1,10,0.00
2013-10-8,86.5,72.2,47.3,40.9,34.1,21.3,64,27,15,30.17,29.92,19,3,19,0.00
2013-10-9,86.2,74.5,59.8,44.4,37.0,30.8,40,26,17,29.98,29.83,22,4,22,0.00
2013-10-10,83.3,74.8,64.4,47.4,39.7,32.0,50,30,17,29.93,29.77,33,8,34,0.00
2013-10-11,78.0,69.4,55.9,42.0,37.6,34.0,48,32,23,30.05,29.92,23,3,25,0.00
2013-10-12,83.6,70.5,53.5,42.6,37.1,30.0,58,31,18,30.18,30.04,12,2,12,0.00
2013-10-13,81.3,72.8,58.6,56.0,48.6,41.0,68,44,28,30.14,30.01,15,2,18,0.00
2013-10-14,77.1,72.5,69.7,50.8,48.3,46.8,47,42,37,30.06,29.95,20,4,20,0.00
2013-10-15,74.3,67.1,59.2,55.5,45.9,29.5,63,48,26,30.07,29.96,15,3,15,0.00
2013-10-16,74.9,63.9,56.0,52.4,39.8,19.0,75,47,14,30.18,30.07,10,3,18,0.00
2013-10-17,76.5,65.5,46.3,40.0,28.2,17.0,66,27,14,30.22,30.02,12,2,12,0.00
2013-10-18,76.9,61.1,44.8,33.0,25.3,18.0,54,29,11,30.22,30.04,9,2,14,0.00
2013-10-19,74.6,59.3,42.3,35.9,30.1,-99.9,62,36,22,30.34,30.13,9,-19,8,0.00
2013-10-20,78.2,61.9,44.3,34.8,10.3,-99.9,63,32,8,30.16,29.95,21,2,21,0.00
2013-10-21,72.5,60.4,41.3,36.9,15.3,-99.9,49,31,9,30.26,29.98,22,-1,22,0.00
2013-10-22,75.7,59.3,47.2,40.5,20.7,-99.9,69,45,21,30.37,30.20,7,1,7,0.00
2013-10-23,80.3,61.5,46.2,38.6,19.2,-99.9,60,39,18,30.30,30.12,8,1,8,0.00
2013-10-24,83.0,67.3,55.7,43.0,21.5,-99.9,45,34,23,30.24,30.06,10,1,8,0.00
2013-10-25,80.8,67.9,58.6,48.1,27.2,-99.9,67,39,23,30.23,30.06,13,2,14,0.00
2013-10-26,76.0,63.5,55.1,46.9,27.4,-99.9,70,48,21,30.28,30.15,15,2,15,0.00
2013-10-27,77.5,62.0,50.4,43.8,26.8,-99.9,64,48,28,30.27,29.99,5,1,5,0.00
2013-10-28,78.8,67.1,50.4,43.2,18.9,-99.9,70,35,11,30.07,29.94,22,4,23,0.00
2013-10-29,75.6,68.3,64.2,38.7,23.4,-99.9,32,20,13,30.04,29.91,21,-25,22,0.00
2013-10-30,73.0,67.0,61.4,46.3,12.9,-99.9,47,39,26,30.02,29.85,28,8,28,0.00
2013-10-31,69.3,60.5,50.3,26.6,2.4,-99.9,35,22,9,30.18,30.01,26,5,33,0.00
2013-11-1,70.3,57.8,41.3,28.2,18.4,-99.9,38,24,14,30.32,30.09,16,-38,29,0.00
2013-11-2,72.8,57.8,44.3,27.1,11.4,-99.9,48,29,14,30.44,30.17,12,2,14,0.00
2013-11-3,76.3,63.9,53.2,49.7,20.5,-99.9,73,32,18,30.17,29.86,17,4,20,0.00
2013-11-4,74.3,63.1,54.3,52.7,31.6,-99.9,87,63,36,30.00,29.86,11,2,16,0.00
2013-11-5,69.1,62.2,53.6,51.0,26.5,-99.9,75,46,32,30.24,29.90,23,0,23,0.00
2013-11-6,63.8,52.9,40.2,29.9,1.1,-99.9,45,27,12,30.52,30.24,12,3,13,0.00
2013-11-7,70.0,55.9,39.0,22.4,13.0,-99.9,37,20,10,30.63,30.41,13,-38,13,0.00
2013-11-8,73.0,57.2,44.6,45.8,19.3,-99.9,73,43,29,30.41,30.14,9,1,9,0.00
2013-11-9,76.2,58.3,45.3,48.5,26.7,-99.9,90,61,25,30.30,30.18,7,1,7,0.00
2013-11-10,77.2,60.5,42.7,36.1,27.2,-99.9,68,33,18,30.41,30.25,9,-41,9,0.00
2013-11-11,76.8,61.7,48.3,42.7,20.7,-99.9,59,39,28,30.36,30.20,8,2,8,0.00
2013-11-12,60.9,54.1,46.3,43.9,22.8,-99.9,71,56,43,30.71,30.33,17,4,18,0.00
2013-11-13,62.6,52.3,45.8,42.2,20.6,-99.9,71,61,45,30.70,30.31,8,2,9,0.00
2013-11-14,70.5,57.9,47.8,45.9,24.1,-99.9,77,58,34,30.31,30.04,10,1,11,0.00
2013-11-15,71.0,53.7,48.7,52.0,29.3,-99.9,81,54,40,30.08,29.85,15,-112,27,0.08
2013-11-16,72.8,56.7,57.2,51.0,23.7,-99.9,78,41,32,29.93,29.78,18,-140,30,0.00
2013-11-17,70.3,57.3,55.2,44.0,28.5,-99.9,56,41,32,30.18,29.91,12,-78,24,0.00
2013-11-18,73.3,59.2,51.0,40.4,23.0,-99.9,64,48,28,30.29,30.15,8,1,8,0.00
2013-11-19,73.3,59.1,49.1,45.3,21.8,-99.9,65,51,29,30.19,29.97,15,2,16,0.00
2013-11-20,71.6,64.1,52.2,43.6,22.7,-99.9,64,44,29,30.03,29.89,18,3,21,0.00
2013-11-21,74.4,64.7,55.3,44.0,22.4,-99.9,54,41,29,30.09,29.96,18,2,18,0.00
2013-11-22,61.8,43.6,36.5,37.9,10.4,-99.9,66,59,39,30.57,30.07,13,5,15,0.00
2013-11-23,41.2,37.3,31.8,30.2,-2.1,-99.9,87,67,59,30.70,30.56,18,3,18,0.00
2013-11-24,35.1,33.0,29.8,29.9,0.8,-99.9,92,85,78,30.65,30.50,6,2,8,0.00
2013-11-25,47.9,38.6,33.4,34.8,12.0,-99.9,89,76,57,30.60,30.42,11,2,12,0.09
2013-11-26,55.5,42.6,30.0,32.8,27.9,24.0,89,59,32,30.72,30.59,6,1,6,0.00
2013-11-27,50.7,40.5,29.4,28.7,26.0,22.0,80,58,33,30.67,30.44,7,1,8,0.00
2013-11-28,58.4,43.8,32.8,30.7,28.5,26.0,83,58,31,30.54,30.41,7,1,6,0.00
2013-11-29,64.5,49.3,38.5,36.6,32.5,27.4,67,54,34,30.57,30.39,8,1,6,0.00
2013-11-30,66.6,52.2,41.6,39.2,36.4,33.0,74,57,35,30.48,30.32,9,1,9,0.00
2013-12-1,60.7,52.0,44.8,40.9,39.3,36.6,79,63,44,30.42,30.29,5,1,6,0.00
2013-12-2,67.8,53.9,36.3,38.7,27.9,12.0,86,46,13,30.30,30.03,22,2,24,0.00
2013-12-3,72.1,62.0,44.7,41.6,23.2,9.0,44,24,10,30.03,29.81,21,4,25,0.00
2013-12-4,69.9,63.3,58.0,45.0,39.4,31.9,56,42,29,29.92,29.75,37,12,38,0.00
2013-12-5,58.8,52.3,45.6,46.1,40.4,33.7,83,65,45,30.11,29.89,22,7,30,0.11
2013-12-6,54.1,44.4,36.3,34.0,29.1,25.0,81,56,35,30.36,30.10,16,3,16,0.00
2013-12-7,40.4,35.7,31.8,33.3,31.4,28.9,92,84,75,30.42,30.24,14,3,14,0.00
2013-12-8,55.6,43.0,30.5,32.5,27.4,20.0,90,59,27,30.32,30.19,23,4,27,0.00
2013-12-9,55.0,42.6,33.8,32.8,22.4,5.0,78,48,20,30.62,30.23,24,4,24,0.00
2013-12-10,48.5,36.8,28.2,10.4,3.2,-1.2,34,25,13,30.68,30.49,8,2,0,0.00
2013-12-11,57.2,43.1,33.9,23.9,12.4,3.5,50,30,17,30.72,30.53,8,2,8,0.00
2013-12-12,45.1,40.7,37.5,36.8,30.1,19.0,90,67,40,30.70,30.40,9,2,11,0.02
2013-12-13,58.4,46.9,34.3,41.8,35.5,31.9,95,68,37,30.40,30.20,22,5,23,0.02
2013-12-14,55.3,45.9,33.3,33.5,27.2,21.0,80,50,27,30.59,30.25,16,2,21,0.00
2013-12-15,58.7,41.7,25.9,28.4,24.8,21.0,85,55,25,30.66,30.51,6,1,7,0.00
2013-12-16,63.4,44.2,28.8,27.7,24.7,21.7,75,50,22,30.61,30.46,5,1,4,0.00
2013-12-17,67.7,48.7,33.8,28.4,26.1,22.3,69,45,19,30.60,30.43,4,1,5,0.00
2013-12-18,62.7,47.9,34.7,30.8,27.8,23.8,72,49,24,30.45,30.14,6,1,6,0.00
2013-12-19,70.2,56.7,38.8,30.3,20.9,-0.4,66,32,6,30.14,29.88,23,6,30,0.00
2013-12-20,61.5,52.1,42.3,45.9,34.3,18.0,78,54,19,29.91,29.71,23,4,28,0.01
2013-12-21,49.2,43.2,36.4,35.1,31.8,27.0,85,64,50,30.15,29.81,34,12,42,0.01
2013-12-22,53.4,45.8,34.2,30.7,26.8,19.7,69,49,28,30.51,30.14,24,6,32,0.00
2013-12-23,55.3,40.5,29.1,27.0,22.9,18.0,80,53,23,30.73,30.51,6,1,10,0.00
2013-12-24,59.1,41.9,29.2,27.0,24.7,21.0,73,53,28,30.68,30.39,7,1,9,0.00
2013-12-25,55.7,44.2,36.1,29.0,26.8,23.0,68,52,34,30.64,30.46,7,2,9,0.00
2013-12-26,53.2,40.0,30.4,28.0,25.2,23.0,80,58,31,30.66,30.48,5,1,6,0.00
2013-12-27,56.6,41.7,30.9,27.0,24.6,22.0,70,53,29,30.65,30.50,5,1,7,0.00
2013-12-28,57.7,43.6,26.9,31.0,25.0,19.0,75,51,34,30.51,30.18,9,2,14,0.00
2013-12-29,53.8,44.9,34.6,26.0,23.9,21.0,59,44,33,30.45,30.16,10,3,13,0.00
2013-12-30,58.5,41.1,25.2,25.0,21.7,17.0,74,49,26,30.61,30.44,6,1,9,0.00
2013-12-31,59.7,42.0,27.8,23.0,21.0,17.0,68,46,22,30.62,30.40,6,1,8,0.00
2014-1-1,65.3,45.4,30.1,25.0,22.8,19.0,69,45,19,30.47,30.29,4,1,6,0.00
2014-1-2,58.5,45.1,35.5,29.0,25.3,20.0,71,47,28,30.63,30.45,6,1,8,0.00